Simultaneous Nadir Overpasses (SNOs) Predictions

Prediction of SNOs between NOAA-15 and METOP-C Satellite Orbit:

Table of predicted SNOs for the next 14.0 days since TLE Epoch: 6/26/2019
Index Date (NOAA-15) Time (NOAA-15) Lat,Lon (NOAA-15) SZA (NOAA-15 ) Date (METOP-C) Time (METOP-C) Lat,Lon (METOP-C) SZA (METOP-C ) Distance(km) Time Diff (sec)
1 07/09/2019 15:50:00 -80.81, 156.05 120.05 07/09/2019 15:48:48 -80.82, 155.87 120.09 3.24 72
2 07/09/2019 16:40:36 80.82, -36.85 59.94 07/09/2019 16:39:28 80.82, -36.67 59.94 3.08 68
3 07/09/2019 17:31:03 -80.81, 130.68 120.05 07/09/2019 17:30:09 -80.83, 130.74 120.05 1.88 54
4 07/09/2019 18:21:39 80.83, -62.21 59.95 07/09/2019 18:20:50 80.82, -62.15 59.93 1.64 49
5 07/09/2019 19:12:06 -80.82, 105.32 120.05 07/09/2019 19:11:31 -80.82, 105.26 120.06 1.04 35
6 07/09/2019 20:02:41 80.81, -87.22 59.97 07/09/2019 20:02:11 80.83, -87.28 59.96 1.87 30
7 07/09/2019 20:53:09 -80.82, 79.96 120.04 07/09/2019 20:52:52 -80.83, 80.13 120.03 3.23 17
8 07/09/2019 21:43:44 80.82,-112.58 59.97 07/09/2019 21:43:33 80.82,-112.76 59.95 3.17 11
9 07/09/2019 22:34:12 -80.83, 54.59 120.04 07/09/2019 22:34:14 -80.82, 54.65 120.04 1.25 2
10 07/09/2019 23:24:47 80.82,-137.94 59.98 07/09/2019 23:24:54 80.83,-137.89 59.99 1.28 7
11 07/10/2019 00:15:15 -80.84, 29.23 120.03 07/10/2019 00:15:36 -80.82, 29.17 120.05 2.34 21
12 07/10/2019 01:05:50 80.83,-163.31 59.98 07/10/2019 01:06:16 80.82,-163.37 59.98 1.25 26
13 07/10/2019 01:56:17 -80.82, 4.22 120.01 07/10/2019 01:56:57 -80.83, 4.05 120.01 3.20 40
14 07/10/2019 02:46:53 80.84, 171.33 59.98 07/10/2019 02:47:37 80.84, 171.51 60.02 3.19 44




NCC Satellite Simultaneous Nadir Overpasses (SNOs) Prediction Service
